Zurück zum Katalog

SL-8 R/B

AktivPO
NORAD 10693·ROCKET BODY·🇷🇺 Russia

Gestartet Feb 28, 1978 von Plesetsk Cosmodrome

Loading…

Nächste Überflüge (nächste 24 Stunden)

TLE

AktuellSource: Space-Track

Epoche: Sep 14, 2026, 05:03 UTC

1 10693U 78022B   26257.21042733  .00000062  00000-0  46835-4 0  9990
2 10693  82.9909 155.8150 0020244 306.6364 216.6758 13.77711626439476

Verfolge SL-8 R/B in Echtzeit mit AllMySat

Download on the App Store